Lid_Strength_Index
10 12 14 13 11 11 12 13 13 12 10 11 11 11 9 7 8 8 7 6 7 6 5 4 4 4 4 4 4 2 2 3 4 4 3 3 3 2 2 1 2 2 1 0
12 14 11 9 9 10 11 12 13 12 9 10 10 11 8 8 9 8 8 7 7 6 7 5 5 4 4 4 4 3 2 2 4 3 2 2 2 3 3 2 1 1 1 0
13 11 8 9 10 10 12 13 13 13 10 10 10 12 10 7 8 8 7 6 6 5 6 6 5 5 5 4 4 2 2 2 2 1 2 2 3 3 3 4 3 2 1 1
12 9 9 10 11 10 13 10 10 10 12 15 11 16 11 10 9 8 7 6 6 5 5 7 6 5 5 4 3 2 2 2 2 2 2 3 3 4 3 2 2 1 0 1
11 10 10 11 10 9 12 9 10 11 13 14 13 16 14 10 11 9 8 7 6 5 5 6 6 5 5 4 2 2 2 4 3 2 2 3 3 2 3 3 2 2 1 0
10 8 9 10 8 8 8 10 11 13 15 18 15 16 15 13 11 9 8 7 6 5 4 5 5 4 5 4 4 3 3 3 2 2 2 2 3 3 3 4 3 3 2 1
11 10 8 7 10 9 10 14 19 19 20 19 13 15 14 11 9 9 9 7 6 5 5 5 6 5 4 4 3 3 3 3 3 2 2 2 2 2 3 3 3 3 2 2
16 16 9 8 10 12 12 13 18 21 20 17 13 17 14 9 8 7 7 7 6 5 5 5 6 6 6 4 4 3 3 3 3 2 3 2 3 2 2 2 2 3 2 1
15 14 9 8 8 9 11 14 12 15 15 18 15 13 11 9 9 8 8 7 7 6 5 6 6 6 5 5 5 4 3 4 3 3 4 2 2 3 2 2 2 3 3 2
12 16 10 8 8 9 10 10 16 15 21 22 18 16 16 13 11 9 8 8 7 6 5 6 6 6 5 5 5 4 3 4 4 4 3 2 2 2 3 2 2 2 2 3
11 13 12 10 11 12 12 14 13 14 16 20 21 18 12 12 10 10 9 7 6 6 5 5 6 6 5 5 5 4 4 3 3 3 3 3 3 2 3 2 1 2 3 4
10 13 15 12 9 8 10 12 13 17 18 16 17 17 8 9 8 9 8 7 6 5 5 5 5 5 5 6 5 4 4 4 3 3 3 3 3 3 3 2 2 2 4 4
10 14 17 15 13 10 11 11 11 12 14 17 19 16 8 7 7 8 8 7 6 5 5 5 6 6 5 4 5 4 3 3 2 2 3 3 2 2 3 2 2 3 3 4
8 14 14 17 14 12 14 12 11 13 17 16 15 13 10 9 9 8 7 7 6 6 6 6 6 7 6 5 5 4 3 3 2 2 2 3 3 2 2 3 4 4 4 5
10 15 13 12 11 11 12 12 12 14 13 16 13 13 12 10 9 9 7 7 7 7 6 7 6 7 6 6 5 4 4 3 2 2 2 3 3 2 2 3 3 4 4 5
11 14 13 14 11 11 13 11 11 11 11 11 12 14 9 8 7 8 8 8 8 8 6 6 6 6 5 5 5 4 4 4 2 2 3 3 2 2 3 3 4 4 5 6
14 16 16 17 13 13 16 13 12 12 11 11 15 12 9 9 8 8 9 8 8 8 7 7 6 7 6 5 5 6 5 4 3 2 2 3 3 5 6 5 5 6 7 8
14 16 13 16 15 21 12 9 9 11 10 10 10 10 9 9 8 8 7 8 8 8 8 7 7 7 7 6 6 5 5 5 3 3 2 4 6 6 7 7 7 8 7 8
10 12 15 17 18 14 12 11 11 12 12 9 10 9 8 8 8 9 8 8 9 9 8 8 8 7 7 7 6 5 6 6 4 3 4 6 6 6 7 8 8 8 9 9
10 11 14 15 18 20 13 9 7 8 15 9 9 9 9 9 12 11 9 7 7 7 7 8 7 7 7 7 6 6 6 6 4 3 5 5 6 7 7 8 8 9 9 11
13 13 15 16 17 15 9 8 7 17 15 9 8 8 9 11 10 9 8 9 8 8 8 8 8 8 7 6 7 7 7 6 2 5 6 6 6 8 8 9 9 9 10 11
14 15 16 15 17 18 8 8 14 10 8 7 8 9 10 9 9 10 9 10 9 9 9 8 8 8 7 7 7 7 7 3 4 6 6 7 8 8 9 10 10 10 11 12
15 12 14 13 14 8 8 8 6 6 8 8 9 9 9 10 10 10 10 10 9 9 9 8 8 8 8 7 6 7 5 4 5 7 9 9 10 10 10 10 10 10 11 12
11 10 13 12 10 9 7 6 6 6 8 8 8 9 10 11 10 10 10 10 10 9 9 8 7 8 9 7 6 5 4 5 7 8 9 10 11 10 10 11 11 11 11 13
10 11 11 11 9 8 7 6 8 8 8 9 9 9 10 10 10 10 10 10 9 9 8 7 7 8 8 7 6 4 4 6 8 9 10 11 11 10 11 11 11 12 12 14
11 13 12 12 8 8 9 9 8 10 10 9 10 10 9 9 10 10 11 9 9 8 8 8 8 8 7 6 4 5 6 7 8 10 10 11 11 11 11 12 13 13 13 12